Weather in Noordwijk

Netherlands     52°14′29″N   4°26′44″E
temp.,
°C
wind,
m/s
gust,
m/s
humid.,
%
clouds,
%
prec.,
mm/h
press.,
hPa
HPBL,
m
14 april, wed
wed1423:00+6nw34650 0.0 1033331
02:00+5n23655 0.0 1032291
05:00+4ne23685 0.1 1032277
08:00+4nne236482 0.1 1032506
11:00+6n345522 0.1 10321272
14:00+6nnw546184 0.3 10321017
17:00+7nnw665819 0.1 10311008
20:00+6n67645 0.1 10311008
15 april, thu
thu1523:00+5nne477196 0.0 1032664
02:00+5n5880100 0.6 1031645
05:00+5n47827 1.1 1030556
08:00+4ene358416 1.2 1031222
11:00+6ene45655 0.1 10321126
14:00+8ene4554100 0.2 10311256
17:00+9ne4647100 0.2 10311067
20:00+8nne7960100 0.2 1031697
16 april, fri
fri1623:00+6ne510685 0.0 1032526
02:00+5ne49715 0.0 1032415
05:00+4ne487560 0.0 1031273
08:00+5nne477986 0.0 1031334
11:00+8ne57565 0.0 10311024
14:00+10nne57515 0.0 10291043
17:00+10n785945 0.0 10281061
20:00+8nne69555 0.0 1029559
17 april, sat
sat1723:00+6ne59680 0.0 1029426
02:00+5ne49770 0.0 1029323
05:00+4ne47795 0.0 1028251
08:00+4ene48735 0.0 1029317
11:00+8ene474999 0.0 1028742
14:00+10nne45485 0.0 1027881
17:00+10nne66555 0.0 1026912
20:00+9nne57591 0.0 1026396
18 april, sun
sun1823:00+7ne47723 0.0 1027249
02:00+6ne24705 0.0 1026124
05:00+5ene22815 0.0 102680
08:00+6e237923 0.0 102698
11:00+10ene126559 0.0 1026320
14:00+11nnw225845 0.0 1026782
17:00+10nnw5465100 0.0 1025369
20:00+9n4572100 0.0 1025231